Miscellaneous Local Product
Issued by NWS Hastings, NE

Home | Current Version | Previous Version | Graphics & Text | Print | Product List | Glossary On
Versions: 1 2 3 4 5 6 7 8 9 10 11 12 13 14 15 16 17 18 19 20 21 22 23 24 25 26 27 28 29 30 31 32 33 34 35 36 37 38 39 40 41 42 43 44 45 46 47 48 49 50
000
AXUS43 KGID 231202
MISGRI

GID CWA HOURLY WEATHER ROUNDUP
NATIONAL WEATHER SERVICE HASTINGS NE
600 AM CST TUE DEC 23 2014

NOTE: "FAIR" INDICATES FEW OR NO CLOUDS BELOW 12,000 FEET WITH NO
SIGNIFICANT WEATHER AND/OR OBSTRUCTIONS TO VISIBILITY.

...SOUTH CENTRAL NEBRASKA...

CITY           SKY/WX    TMP DP  RH WIND       PRES   REMARKS
GRAND ISLAND   LGT SNOW  30  28  92 NW16      29.64R FOG     WCI  19
HASTINGS       LGT SNOW  30  26  85 NW22      29.64R FOG     WCI  17
KEARNEY        CLOUDY    28  25  86 NW21G28   29.66R WCI  15
ORD            NOT AVBL
YORK           LGT SNOW  32  32 100 NW15      29.59R WCI  22
AURORA         LGT SNOW  31  31  97 NW17      29.61R WCI  20
LEXINGTON      FLURRIES  30  26  84 NW22G30   29.71R WCI  17
HOLDREGE       LGT SNOW  29  25  85 NW17G25   29.68R WCI  17
HEBRON         CLOUDY    33  28  80 W10       29.64R WCI  25

...NEBRASKA PANHANDLE...

CITY           SKY/WX    TMP DP  RH WIND       PRES   REMARKS
CHADRON        FOG       27  25  92 CALM      29.96R VSB 3/4
ALLIANCE       CLOUDY    25  22  88 N21G31    29.88R WCI  11
SCOTTSBLUFF    CLOUDY    30  24  78 NW25G36   29.93R WCI  16
SIDNEY         LGT SNOW  28  24  85 N32G40    29.85R FOG     WCI  12

...WESTERN AND NORTH CENTRAL NEBRASKA...

CITY           SKY/WX    TMP DP  RH WIND       PRES   REMARKS
VALENTINE      LGT SNOW  26  22  84 NW25G41   29.78R FOG     WCI  11
AINSWORTH      LGT SNOW  27  24  89 NW25G33   29.73R WCI  12
ONEILL         LGT SNOW  32  32 100 NW18      29.66R WCI  20
BROKEN BOW     LGT SNOW  28  24  85 N30G38    29.69R FOG     WCI  12
IMPERIAL       LGT SNOW  28  24  85 N30G37    29.80R FOG     WCI  12
NORTH PLATTE   CLOUDY    27  20  75 NW26G33   29.76R WCI  12
MCCOOK         CLOUDY    28  24  85 NW26G35   29.75R WCI  13

...EASTERN NEBRASKA...

CITY           SKY/WX    TMP DP  RH WIND       PRES   REMARKS
NORFOLK        LGT SNOW  33  32  96 N14       29.60R FOG     WCI  23
SO SIOUX CITY  LGT SNOW  34  32  92 N9        29.60R FOG     WCI  27
TEKAMAH        CLOUDY    34  32  92 N13       29.57R WCI  25
COLUMBUS       CLOUDY    34  28  80 NW15      29.60R WCI  24
ALBION         LGT SNOW  32  30  91 NW16      29.60R WCI  22
OMAHA EPPLEY   FLURRIES  35  33  92 NW9       29.57R WCI  28
OFFUTT AFB     FLURRIES  35  33  93 W8        29.56R WCI  28
MILLARD        DRIZZLE   35  33  92 NW8       29.55R WCI  28
LINCOLN        CLOUDY    34  31  88 W12       29.60R WCI  25
NEBRASKA CITY  CLOUDY    35  34  94 W13       29.57R WCI  27
BEATRICE       CLOUDY    34  30  87 W10       29.61R WCI  26
FALLS CITY     CLOUDY    36  33  89 W13       29.61R WCI  27

...NORTHERN KANSAS...

CITY           SKY/WX    TMP DP  RH WIND       PRES   REMARKS
GOODLAND       LGT SNOW  30  27  88 NW30G38   29.79R FOG     WCI  15
HILL CITY      PTCLDY    30  24  78 NW16G25   29.75R WCI  19
PHILLIPSBURG   PTCLDY    34  27  75 NW15      29.72R WCI  24
SMITH CENTER   PTCLDY    30  25  80 NW20G25   29.71R WCI  18
BELOIT         CLOUDY    34  27  75 NW15      29.70R WCI  24
HAYS           CLOUDY    34  19  55 NW17      29.75R WCI  23
RUSSELL        CLOUDY    33  26  75 NW15      29.73R WCI  23
CONCORDIA      CLOUDY    34  28  79 W10       29.68R WCI  26
SALINA         CLOUDY    37  28  70 NW21      29.70R WCI  26
TOPEKA         CLEAR     37  31  78 W7        29.65R WCI  32



USA.gov is the U.S. government's official web portal to all federal, state and local government web resources and services.